Greensboro, NC

6:03 PM EDT on July 26, 2017 (GMT -0400)
Piedmont Triad International

Weather History for KGSO - March, 2014

Change the Weather History Date:

Thursday, March 13, 2014

  Actual Average Record
Temperature  
Mean Temperature 37 °F 49 °F  
Max Temperature 44 °F 60 °F 85 °F (1990)
Min Temperature 30 °F 38 °F 14 °F (1960)
Degree Days  
Heating Degree Days 28 16  
Month to date heating degree days 230  
Since 1 July heating degree days 3085  
Cooling Degree Days 0 0  
Month to date cooling degree days 0  
Year to date cooling degree days 0  
Moisture  
Dew Point 9 °F    
Average Humidity 30    
Maximum Humidity 54    
Minimum Humidity 9    
Precipitation  
Precipitation 0.00 in 0.12 in 2.41 in (1975)
Month to date precipitation 1.55  
Year to date precipitation 7.57  
Snow  
Snow 0.00 in 0.00 in 5.70 in (1993)
Month to date snowfall 0.5  
Since 1 July snowfall 7.2  
Snow Depth -    
Sea Level Pressure  
Sea Level Pressure 29.98 in    
Wind  
Wind Speed 15 mph (NW)    
Max Wind Speed 24 mph    
Max Gust Speed 32 mph    
Visibility 10 miles    
Events      
T = Trace of Precipitation, MM = Missing Value Source: NWS Daily Summary

Daily Weather History Graph

Daily Weather History Graph

Search for Another Location

Airport or City:

Trip Planner

Search our weather history database for the weather conditions in past years. The results will help you decide how hot, cold, wet, or windy it might be!

Date:

Astronomy

Mar. 13, 2014 Rise Set
Actual Time 7:33 AM EDT 7:25 PM EDT
Civil Twilight 7:07 AM EDT 7:51 PM EDT
Nautical Twilight 6:38 AM EDT 8:20 PM EDT
Astronomical Twilight 6:08 AM EDT 8:50 PM EDT
Moon 4:53 PM EDT (3/13) 5:35 AM EDT (3/13)
Length of Visible Light 12h 43m
Length of Day
11h 52m
Waxing Gibbous, 91% of the Moon is Illuminated
Mar 13
Waxing Gibbous
Mar 16
Full
Mar 23
Last Quarter
Mar 30
New
Apr 7
First Quarter

Hourly Weather History & Observations

Time (EDT) Temp. Windchill Dew Point Humidity Pressure Visibility Wind Dir Wind Speed Gust Speed Precip Events Conditions
12:54 AM 39.0 °F 29.0 °F 21.0 °F 49% 29.68 in 10.0 mi NW 20.7 mph 27.6 mph N/A   Scattered Clouds
1:54 AM 37.0 °F 26.2 °F 18.0 °F 46% 29.72 in 10.0 mi NW 21.9 mph 32.2 mph N/A   Partly Cloudy
2:54 AM 35.1 °F 26.4 °F 19.0 °F 52% 29.73 in 10.0 mi NW 12.7 mph - N/A   Partly Cloudy
3:54 AM 33.1 °F 26.1 °F 18.0 °F 54% 29.75 in 10.0 mi NNW 8.1 mph - N/A   Partly Cloudy
4:54 AM 33.1 °F 24.9 °F 14.0 °F 46% 29.77 in 10.0 mi NW 10.4 mph 21.9 mph N/A   Mostly Cloudy
5:54 AM 33.1 °F 23.4 °F 15.1 °F 48% 29.81 in 10.0 mi NW 13.8 mph 21.9 mph N/A   Mostly Cloudy
6:54 AM 32.0 °F 20.5 °F 12.0 °F 44% 29.84 in 10.0 mi NW 18.4 mph - N/A   Mostly Cloudy
7:54 AM 30.9 °F 21.7 °F 10.9 °F 43% 29.89 in 10.0 mi WNW 11.5 mph 23.0 mph N/A   Scattered Clouds
8:54 AM 33.1 °F 20.9 °F 12.0 °F 42% 29.93 in 10.0 mi NW 21.9 mph 26.5 mph N/A   Partly Cloudy
9:54 AM 34.0 °F 21.5 °F 9.0 °F 35% 29.97 in 10.0 mi NW 24.2 mph 32.2 mph N/A   Partly Cloudy
10:54 AM 37.0 °F 28.1 °F 5.0 °F 26% 29.99 in 10.0 mi NNW 15.0 mph 28.8 mph N/A   Partly Cloudy
11:54 AM 37.9 °F 28.5 °F 5.0 °F 25% 30.01 in 10.0 mi NW 17.3 mph 27.6 mph N/A   Partly Cloudy
12:54 PM 39.0 °F 31.0 °F 8.1 °F 28% 30.04 in 10.0 mi NW 13.8 mph 21.9 mph N/A   Partly Cloudy
1:54 PM 41.0 °F 33.5 °F 7.0 °F 25% 30.04 in 10.0 mi NW 13.8 mph 24.2 mph N/A   Partly Cloudy
2:54 PM 42.1 °F 34.5 °F 7.0 °F 24% 30.03 in 10.0 mi WNW 15.0 mph 26.5 mph N/A   Clear
3:54 PM 43.0 °F 36.0 °F 8.1 °F 24% 30.05 in 10.0 mi NW 13.8 mph 25.3 mph N/A   Clear
4:54 PM 44.1 °F 37.4 °F 5.0 °F 20% 30.06 in 10.0 mi NW 13.8 mph - N/A   Clear
5:54 PM 44.1 °F 38.1 °F 5.0 °F 20% 30.08 in 10.0 mi WNW 11.5 mph 18.4 mph N/A   Clear
6:54 PM 42.1 °F 35.2 °F 3.0 °F 20% 30.12 in 10.0 mi WNW 12.7 mph - N/A   Clear
7:54 PM 37.0 °F 32.4 °F 5.0 °F 26% 30.14 in 10.0 mi WNW 5.8 mph - N/A   Clear
8:54 PM 35.1 °F 31.0 °F 7.0 °F 31% 30.17 in 10.0 mi West 4.6 mph - N/A   Clear
9:54 PM 36.0 °F - 5.0 °F 27% 30.19 in 10.0 mi Calm Calm - N/A   Clear
10:54 PM 36.0 °F 33.3 °F 3.9 °F 26% 30.21 in 10.0 mi North 3.5 mph - N/A   Clear
11:54 PM 33.1 °F 30.0 °F 7.0 °F 34% 30.22 in 10.0 mi West 3.5 mph - N/A   Clear